Location: Berville
(49.1893°N, 2.0748°E)
Time: 07:06:47
(UTC+00:00)

Cosmos 1461 - Pass Details

Date: 08 February 2023
Orbit: 492 x 644 km, 65.0° (Epoch: 21 March)

Event Time Altitude Azimuth Distance (km) Brightness Sun altitude
Rises 17:46:04 0° 230° (SW) 2,767 7.7 -8.1°
Reaches altitude 10° 17:48:16 10° 234° (SW) 1,899 6.8 -8.4°
Maximum altitude 17:52:30 57° 314° (NW) 714 3.6 -9.1°
Drops below altitude 10° 17:56:58 10° 33° (NNE) 2,000 5.3 -9.8°
Enters shadow 17:58:03 - 36° (NE) 2,423 5.7 -10.0°
